TimeMDT,TemperatureF,Dew PointF,Humidity,Sea Level PressureIn,VisibilityMPH,Wind Direction,Wind SpeedMPH,Gust SpeedMPH,PrecipitationIn,Events,Conditions,WindDirDegrees,DateUTC
2:45 AM,79,68,60,29.87,2,Calm,Calm,,,,,,2012-10-06 08:45:00
5:40 AM,69.8,64.4,83,29.94,10.0,South,9.2,-,N/A,,Clear,170,2012-10-06 11:40:00
5:50 AM,74,65,66,29.88,2,SE,2.2,,,,,140,2012-10-06 11:50:00
6:40 AM,69.8,64.4,83,29.89,10.0,South,9.2,-,N/A,,Clear,180,2012-10-06 12:40:00
7:42 AM,69.8,62.6,78,29.90,10.0,South,8.1,-,N/A,,Clear,180,2012-10-06 13:42:00
8:41 AM,75.2,64.4,69,29.96,10.0,South,3.5,-,N/A,,Clear,190,2012-10-06 14:41:00
8:50 AM,81,67,55,29.90,12,Calm,Calm,,,,,,2012-10-06 14:50:00
9:42 AM,82.4,71.6,70,29.91,12.0,South,5.8,-,N/A,,Clear,170,2012-10-06 15:42:00
10:49 AM,87.8,68.0,52,29.90,12.0,Calm,Calm,-,N/A,,Clear,0,2012-10-06 16:49:00
11:43 AM,89.6,62.6,40,29.94,12.0,NNW,3.5,-,N/A,,Clear,330,2012-10-06 17:43:00
11:50 AM,94,67,32,29.88,19,Calm,Calm,,,,,,2012-10-06 17:50:00
12:49 PM,91.4,66.2,43,29.86,15.0,NNW,6.9,-,N/A,,Clear,340,2012-10-06 18:49:00
1:45 PM,89.6,68.0,49,29.85,15.0,NNW,6.9,-,N/A,,Clear,330,2012-10-06 19:45:00
2:44 PM,91.4,68.0,46,29.88,15.0,North,9.2,-,N/A,,Clear,350,2012-10-06 20:44:00
2:50 PM,96,71,34,29.82,19,NW,4.5,,,,,320,2012-10-06 20:50:00
3:48 PM,91.4,66.2,43,29.81,15.0,NNW,10.4,-,N/A,,Clear,340,2012-10-06 21:48:00
4:51 PM,91.4,60.8,36,29.80,10.0,NW,9.2,-,N/A,,Clear,320,2012-10-06 22:51:00
5:50 PM,96,62,22,29.80,19,NW,8.9,,,,,320,2012-10-06 23:50:00
5:53 PM,93.2,60.8,34,29.91,10.0,NNW,6.9,-,N/A,,Clear,330,2012-10-06 23:53:00
6:45 PM,87.8,68.0,52,29.80,10.0,NW,5.8,-,N/A,,Clear,320,2012-10-07 00:45:00
7:49 PM,84.2,69.8,62,29.82,10.0,Calm,Calm,-,N/A,,Clear,0,2012-10-07 01:49:00
8:50 PM,86,74,60,29.84,2,South,2.2,,,,,180,2012-10-07 02:50:00
8:50 PM,82.4,69.8,66,29.96,10.0,SE,5.8,-,N/A,,Clear,130,2012-10-07 02:50:00
9:51 PM,80.6,71.6,74,29.86,10.0,SSE,6.9,-,N/A,,Clear,160,2012-10-07 03:51:00
10:44 PM,78.8,71.6,78,29.86,10.0,South,9.2,-,N/A,,Clear,170,2012-10-07 04:44:00
11:50 PM,82,74,71,29.83,2,SE,4.5,,,,,140,2012-10-07 05:50:00